• In Hungary
  • List of Countries
  • For 7 days
  • Water Temperature
  • Satellite Maps
  • Weather Map
  • News
  • Weather Widgets
  • user-avatar
    Login

    Hourly Weather Novaya Kushma

    Today, 14 August, Tuesday

    Time Temperature Precipitation Wind Pressure Humidity
    00:00 +15°C° 0 mm 2 mps 745 mmHg 69%
    01:00 +15°C° 0 mm 2 mps 746 mmHg 71%
    02:00 +14°C° 0 mm 2 mps 746 mmHg 72%
    03:00 +13°C° 0 mm 2 mps 746 mmHg 76%
    04:00 +14°C° 0 mm 2 mps 746 mmHg 75%
    05:00 +15°C° 0 mm 2 mps 746 mmHg 75%
    06:00 +15°C° 0 mm 2 mps 747 mmHg 74%
    07:00 +17°C° 0 mm 3 mps 747 mmHg 69%
    08:00 +18°C° 0 mm 3 mps 747 mmHg 64%
    09:00 +20°C° 0 mm 4 mps 747 mmHg 59%
    10:00 +21°C° 0.1 mm 4 mps 747 mmHg 57%
    11:00 +21°C° 0.1 mm 4 mps 747 mmHg 55%
    12:00 +22°C° 0.1 mm 4 mps 747 mmHg 53%
    13:00 +22°C° 0 mm 4 mps 747 mmHg 51%
    14:00 +22°C° 0 mm 4 mps 747 mmHg 49%
    15:00 +23°C° 0 mm 4 mps 747 mmHg 48%
    16:00 +22°C° 0 mm 4 mps 748 mmHg 52%
    17:00 +21°C° 0 mm 3 mps 748 mmHg 55%
    18:00 +20°C° 0 mm 3 mps 748 mmHg 59%
    19:00 +19°C° 0 mm 2 mps 748 mmHg 63%
    20:00 +17°C° 0 mm 2 mps 749 mmHg 68%
    21:00 +15°C° 0 mm 2 mps 749 mmHg 72%
    22:00 +15°C° 0 mm 2 mps 749 mmHg 74%
    23:00 +14°C° 0 mm 2 mps 750 mmHg 75%

    Tomorrow, 15 August, Wednesday

    Time Temperature Precipitation Wind Pressure Humidity
    00:00 +14°C° 0 mm 2 mps 750 mmHg 77%
    01:00 +13°C° 0 mm 2 mps 750 mmHg 79%
    02:00 +13°C° 0 mm 2 mps 750 mmHg 82%
    03:00 +13°C° 0 mm 2 mps 750 mmHg 84%
    04:00 +13°C° 0 mm 2 mps 751 mmHg 83%
    05:00 +14°C° 0 mm 2 mps 751 mmHg 82%
    06:00 +14°C° 0 mm 2 mps 751 mmHg 81%
    07:00 +16°C° 0 mm 2 mps 751 mmHg 73%
    08:00 +18°C° 0 mm 2 mps 751 mmHg 66%
    09:00 +20°C° 0 mm 3 mps 751 mmHg 58%
    10:00 +22°C° 0 mm 3 mps 751 mmHg 54%
    11:00 +24°C° 0 mm 3 mps 751 mmHg 50%
    12:00 +25°C° 0 mm 3 mps 751 mmHg 46%
    13:00 +25°C° 0 mm 3 mps 751 mmHg 46%
    14:00 +25°C° 0 mm 3 mps 751 mmHg 46%
    15:00 +25°C° 0 mm 3 mps 750 mmHg 46%
    16:00 +25°C° 0 mm 3 mps 750 mmHg 51%
    17:00 +24°C° 0 mm 2 mps 750 mmHg 57%
    18:00 +23°C° 0 mm 2 mps 750 mmHg 62%
    19:00 +21°C° 0 mm 3 mps 749 mmHg 66%
    20:00 +20°C° 0 mm 3 mps 749 mmHg 69%
    21:00 +19°C° 0 mm 4 mps 749 mmHg 73%
    22:00 +19°C° 0.4 mm 4 mps 748 mmHg 77%
    23:00 +19°C° 0.4 mm 4 mps 748 mmHg 81%

    Day after tomorrow, 16 August, Thursday

    Time Temperature Precipitation Wind Pressure Humidity
    00:00 +17°C° 0.4 mm 5 mps 747 mmHg 85%
    01:00 +17°C° 0.6 mm 5 mps 747 mmHg 88%
    02:00 +17°C° 0.6 mm 5 mps 746 mmHg 90%
    03:00 +17°C° 0.6 mm 5 mps 746 mmHg 93%
    04:00 +17°C° 0.4 mm 5 mps 746 mmHg 94%
    05:00 +17°C° 0.4 mm 5 mps 746 mmHg 94%
    06:00 +19°C° 0.4 mm 5 mps 746 mmHg 94%
    07:00 +19°C° 0.1 mm 5 mps 746 mmHg 91%
    08:00 +20°C° 0.1 mm 5 mps 746 mmHg 89%
    09:00 +21°C° 0.1 mm 5 mps 746 mmHg 86%
    10:00 +22°C° 0.1 mm 5 mps 746 mmHg 81%
    11:00 +22°C° 0.1 mm 5 mps 747 mmHg 75%
    12:00 +23°C° 0.1 mm 6 mps 747 mmHg 70%
    13:00 +22°C° 0.1 mm 6 mps 747 mmHg 70%
    14:00 +22°C° 0.1 mm 6 mps 747 mmHg 70%
    15:00 +22°C° 0.1 mm 5 mps 748 mmHg 70%
    16:00 +21°C° 0 mm 5 mps 748 mmHg 74%
    17:00 +20°C° 0 mm 4 mps 748 mmHg 78%
    18:00 +18°C° 0 mm 3 mps 749 mmHg 81%
    19:00 +17°C° 0 mm 3 mps 749 mmHg 86%
    20:00 +16°C° 0 mm 3 mps 749 mmHg 90%
    21:00 +15°C° 0 mm 2 mps 750 mmHg 94%
    22:00 +15°C° 0 mm 2 mps 750 mmHg 94%
    23:00 +14°C° 0 mm 2 mps 750 mmHg 94%

    17 August, Friday

    Time Temperature Precipitation Wind Pressure Humidity
    00:00 +14°C° 0 mm 2 mps 750 mmHg 95%
    01:00 +14°C° 0 mm 2 mps 750 mmHg 95%
    02:00 +13°C° 0 mm 2 mps 751 mmHg 96%
    03:00 +13°C° 0 mm 2 mps 751 mmHg 96%
    04:00 +13°C° 0 mm 2 mps 751 mmHg 94%
    05:00 +13°C° 0 mm 2 mps 752 mmHg 92%
    06:00 +14°C° 0 mm 2 mps 752 mmHg 90%
    07:00 +14°C° 0 mm 3 mps 752 mmHg 82%
    08:00 +17°C° 0 mm 3 mps 752 mmHg 74%
    09:00 +18°C° 0 mm 4 mps 753 mmHg 65%
    10:00 +19°C° 0 mm 4 mps 753 mmHg 61%
    11:00 +20°C° 0 mm 4 mps 753 mmHg 56%
    12:00 +21°C° 0 mm 5 mps 753 mmHg 52%
    13:00 +21°C° 0 mm 5 mps 753 mmHg 49%
    14:00 +21°C° 0 mm 5 mps 753 mmHg 47%
    15:00 +21°C° 0 mm 5 mps 753 mmHg 45%
    16:00 +20°C° 0 mm 4 mps 753 mmHg 50%
    17:00 +19°C° 0 mm 4 mps 754 mmHg 56%
    18:00 +18°C° 0 mm 3 mps 754 mmHg 61%
    19:00 +16°C° 0 mm 3 mps 754 mmHg 65%
    20:00 +15°C° 0 mm 2 mps 754 mmHg 70%
    21:00 +13°C° 0 mm 2 mps 755 mmHg 75%
    22:00 +12°C° 0 mm 2 mps 755 mmHg 77%
    23:00 +12°C° 0 mm 2 mps 755 mmHg 79%

    18 August, Saturday

    Time Temperature Precipitation Wind Pressure Humidity
    00:00 +10°C° 0 mm 2 mps 755 mmHg 81%
    01:00 +10°C° 0 mm 2 mps 755 mmHg 83%
    02:00 +9°C° 0 mm 2 mps 756 mmHg 85%
    03:00 +9°C° 0 mm 2 mps 756 mmHg 86%
    04:00 +9°C° 0 mm 2 mps 756 mmHg 85%
    05:00 +10°C° 0 mm 2 mps 756 mmHg 83%
    06:00 +10°C° 0 mm 2 mps 757 mmHg 81%
    07:00 +13°C° 0 mm 2 mps 757 mmHg 74%
    08:00 +14°C° 0 mm 3 mps 757 mmHg 67%
    09:00 +17°C° 0 mm 3 mps 757 mmHg 60%
    10:00 +18°C° 0 mm 3 mps 757 mmHg 56%
    11:00 +19°C° 0 mm 4 mps 757 mmHg 53%
    12:00 +20°C° 0 mm 4 mps 756 mmHg 49%
    13:00 +20°C° 0 mm 4 mps 756 mmHg 49%
    14:00 +20°C° 0 mm 4 mps 756 mmHg 48%
    15:00 +21°C° 0 mm 4 mps 756 mmHg 48%
    16:00 +20°C° 0 mm 3 mps 756 mmHg 53%
    17:00 +19°C° 0 mm 2 mps 756 mmHg 58%
    18:00 +18°C° 0 mm 2 mps 756 mmHg 63%
    19:00 +16°C° 0 mm 1 mps 756 mmHg 68%
    20:00 +15°C° 0 mm 1 mps 756 mmHg 73%
    21:00 +13°C° 0 mm 1 mps 756 mmHg 78%
    22:00 +11°C° 0 mm 0 mps 756 mmHg 80%
    23:00 +11°C° 0 mm 0 mps 756 mmHg 81%

    19 August, Sunday

    Time Temperature Precipitation Wind Pressure Humidity
    00:00 +10°C° 0 mm 0 mps 756 mmHg 82%
    01:00 +10°C° 0 mm 0 mps 756 mmHg 83%
    02:00 +10°C° 0 mm 0 mps 757 mmHg 84%
    03:00 +10°C° 0 mm 1 mps 757 mmHg 85%
    04:00 +10°C° 0 mm 0 mps 757 mmHg 83%
    05:00 +11°C° 0 mm 0 mps 757 mmHg 81%
    06:00 +12°C° 0 mm 0 mps 757 mmHg 79%
    07:00 +15°C° 0 mm 1 mps 757 mmHg 71%
    08:00 +18°C° 0 mm 1 mps 757 mmHg 63%
    09:00 +21°C° 0 mm 1 mps 757 mmHg 55%
    10:00 +22°C° 0 mm 1 mps 756 mmHg 51%
    11:00 +23°C° 0 mm 1 mps 756 mmHg 47%
    12:00 +24°C° 0 mm 1 mps 756 mmHg 43%
    13:00 +25°C° 0 mm 1 mps 755 mmHg 42%
    14:00 +25°C° 0 mm 1 mps 755 mmHg 41%
    15:00 +25°C° 0 mm 1 mps 755 mmHg 40%
    16:00 +24°C° 0 mm 1 mps 754 mmHg 46%
    17:00 +23°C° 0 mm 1 mps 754 mmHg 51%
    18:00 +22°C° 0 mm 1 mps 754 mmHg 57%
    19:00 +20°C° 0 mm 1 mps 754 mmHg 61%
    20:00 +17°C° 0 mm 2 mps 754 mmHg 66%
    21:00 +16°C° 0 mm 2 mps 754 mmHg 70%
    22:00 +15°C° 0 mm 2 mps 754 mmHg 73%
    23:00 +14°C° 0 mm 2 mps 754 mmHg 76%
    Show more